TimePDT,TemperatureF,Dew PointF,Humidity,Sea Level PressureIn,VisibilityMPH,Wind Direction,Wind SpeedMPH,Gust SpeedMPH,PrecipitationIn,Events,Conditions,WindDirDegrees,DateUTC
12:15 AM,48.2,37.4,66,29.99,10.0,North,-9999.0,-,N/A,,Overcast,0,2013-03-26 07:15:00
12:35 AM,48.2,39.2,71,29.99,10.0,Calm,Calm,-,N/A,,Overcast,0,2013-03-26 07:35:00
12:55 AM,48.2,41.0,76,29.99,10.0,Calm,Calm,-,N/A,,Overcast,0,2013-03-26 07:55:00
1:15 AM,46.4,39.2,76,29.99,10.0,Calm,Calm,-,N/A,,Overcast,0,2013-03-26 08:15:00
1:35 AM,46.4,41.0,81,29.99,10.0,Calm,Calm,-,N/A,,Overcast,0,2013-03-26 08:35:00
1:55 AM,48.2,39.2,71,29.99,10.0,Calm,Calm,-,N/A,,Overcast,0,2013-03-26 08:55:00
2:15 AM,46.4,39.2,76,29.99,10.0,Calm,Calm,-,N/A,,Overcast,0,2013-03-26 09:15:00
2:35 AM,46.4,39.2,76,29.99,10.0,Calm,Calm,-,N/A,,Overcast,0,2013-03-26 09:35:00
2:55 AM,46.4,41.0,81,29.99,10.0,Calm,Calm,-,N/A,,Overcast,0,2013-03-26 09:55:00
3:15 AM,46.4,42.8,87,29.99,10.0,Calm,Calm,-,N/A,,Overcast,0,2013-03-26 10:15:00
3:35 AM,46.4,41.0,81,29.99,10.0,Calm,Calm,-,N/A,,Overcast,0,2013-03-26 10:35:00
3:55 AM,46.4,39.2,76,29.99,10.0,Calm,Calm,-,N/A,,Overcast,0,2013-03-26 10:55:00
4:15 AM,46.4,39.2,76,29.98,10.0,Calm,Calm,-,N/A,,Overcast,0,2013-03-26 11:15:00
4:35 AM,46.4,39.2,76,29.99,10.0,Calm,Calm,-,N/A,,Overcast,0,2013-03-26 11:35:00
4:55 AM,46.4,39.2,76,29.99,10.0,Calm,Calm,-,N/A,,Overcast,0,2013-03-26 11:55:00
5:15 AM,44.6,39.2,81,29.99,10.0,Calm,Calm,-,N/A,,Overcast,0,2013-03-26 12:15:00
5:35 AM,44.6,39.2,81,29.99,10.0,Calm,Calm,-,N/A,,Overcast,0,2013-03-26 12:35:00
5:55 AM,44.6,41.0,87,30.00,10.0,Calm,Calm,-,N/A,,Overcast,0,2013-03-26 12:55:00
6:15 AM,46.4,39.2,76,30.00,10.0,Calm,Calm,-,N/A,,Overcast,0,2013-03-26 13:15:00
6:35 AM,44.6,39.2,81,30.01,10.0,Calm,Calm,-,N/A,,Overcast,0,2013-03-26 13:35:00
6:55 AM,44.6,39.2,81,30.01,10.0,Calm,Calm,-,N/A,,Overcast,0,2013-03-26 13:55:00
7:15 AM,44.6,39.2,81,30.02,10.0,Calm,Calm,-,N/A,,Overcast,0,2013-03-26 14:15:00
7:35 AM,44.6,41.0,87,30.01,10.0,Calm,Calm,-,N/A,,Overcast,0,2013-03-26 14:35:00
7:55 AM,46.4,41.0,81,30.02,10.0,SE,3.5,-,N/A,,Overcast,140,2013-03-26 14:55:00
8:15 AM,46.4,41.0,81,30.02,10.0,SSE,3.5,-,N/A,,Overcast,160,2013-03-26 15:15:00
8:35 AM,46.4,41.0,81,30.02,10.0,South,3.5,-,N/A,,Overcast,170,2013-03-26 15:35:00
8:55 AM,46.4,41.0,81,30.03,10.0,SE,4.6,-,N/A,,Overcast,140,2013-03-26 15:55:00
9:15 AM,48.2,41.0,76,30.03,10.0,SE,4.6,-,N/A,,Mostly Cloudy,140,2013-03-26 16:15:00
9:35 AM,48.2,41.0,76,30.02,10.0,SE,3.5,-,N/A,,Mostly Cloudy,140,2013-03-26 16:35:00
9:55 AM,50.0,42.8,76,30.02,10.0,South,5.8,-,N/A,,Partly Cloudy,190,2013-03-26 16:55:00
10:15 AM,50.0,41.0,71,30.03,10.0,South,4.6,-,N/A,,Partly Cloudy,190,2013-03-26 17:15:00
10:35 AM,51.8,39.2,62,30.03,10.0,SSE,4.6,-,N/A,,Mostly Cloudy,150,2013-03-26 17:35:00
10:55 AM,51.8,39.2,62,30.03,10.0,South,6.9,-,N/A,,Mostly Cloudy,180,2013-03-26 17:55:00
11:15 AM,51.8,39.2,62,30.03,10.0,South,9.2,-,N/A,,Clear,170,2013-03-26 18:15:00
11:35 AM,51.8,39.2,62,30.03,10.0,South,6.9,-,N/A,,Clear,170,2013-03-26 18:35:00
11:55 AM,53.6,39.2,58,30.03,10.0,SSE,8.1,-,N/A,,Scattered Clouds,160,2013-03-26 18:55:00
12:15 PM,53.6,39.2,58,30.03,10.0,South,4.6,-,N/A,,Mostly Cloudy,170,2013-03-26 19:15:00
12:35 PM,53.6,39.2,58,30.03,10.0,SSE,9.2,-,N/A,,Scattered Clouds,150,2013-03-26 19:35:00
12:55 PM,55.4,39.2,54,30.02,10.0,South,9.2,-,N/A,,Clear,170,2013-03-26 19:55:00
1:15 PM,55.4,39.2,54,30.02,10.0,SSE,8.1,-,N/A,,Partly Cloudy,160,2013-03-26 20:15:00
1:35 PM,55.4,39.2,54,30.02,10.0,SSE,8.1,-,N/A,,Clear,160,2013-03-26 20:35:00
1:55 PM,55.4,41.0,58,30.01,10.0,SSE,8.1,-,N/A,,Clear,150,2013-03-26 20:55:00
2:15 PM,57.2,41.0,55,30.01,10.0,SE,9.2,-,N/A,,Clear,140,2013-03-26 21:15:00
2:35 PM,57.2,39.2,51,30.00,10.0,SSE,8.1,-,N/A,,Clear,150,2013-03-26 21:35:00
2:55 PM,55.4,41.0,58,30.00,10.0,SE,9.2,-,N/A,,Mostly Cloudy,140,2013-03-26 21:55:00
3:15 PM,55.4,42.8,63,30.00,10.0,South,8.1,-,N/A,,Overcast,170,2013-03-26 22:15:00
3:35 PM,55.4,41.0,58,30.00,10.0,SSE,6.9,-,N/A,,Overcast,150,2013-03-26 22:35:00
3:55 PM,55.4,39.2,54,29.99,10.0,SE,8.1,-,N/A,,Overcast,140,2013-03-26 22:55:00
4:15 PM,55.4,41.0,58,29.99,10.0,SSE,9.2,-,N/A,,Overcast,150,2013-03-26 23:15:00
4:35 PM,55.4,41.0,58,29.99,10.0,SE,8.1,-,N/A,,Overcast,140,2013-03-26 23:35:00
4:55 PM,55.4,41.0,58,29.99,10.0,SSE,6.9,-,N/A,,Overcast,150,2013-03-26 23:55:00
5:15 PM,55.4,39.2,54,29.98,10.0,SE,6.9,-,N/A,,Overcast,140,2013-03-27 00:15:00
5:35 PM,55.4,39.2,54,29.98,10.0,SSE,8.1,-,N/A,,Overcast,150,2013-03-27 00:35:00
5:55 PM,53.6,41.0,62,29.98,10.0,SSE,5.8,-,N/A,,Overcast,150,2013-03-27 00:55:00
6:15 PM,53.6,42.8,67,29.98,10.0,SE,5.8,-,N/A,,Overcast,140,2013-03-27 01:15:00
6:35 PM,53.6,42.8,67,29.98,10.0,SE,5.8,-,N/A,,Overcast,130,2013-03-27 01:35:00
6:55 PM,53.6,42.8,67,29.98,10.0,SE,6.9,-,N/A,,Overcast,140,2013-03-27 01:55:00
7:15 PM,51.8,42.8,71,29.98,10.0,SE,8.1,-,N/A,,Overcast,140,2013-03-27 02:15:00
7:35 PM,51.8,42.8,71,29.98,10.0,SE,6.9,-,N/A,,Overcast,130,2013-03-27 02:35:00
7:55 PM,51.8,44.6,76,29.98,10.0,ESE,3.5,-,N/A,,Overcast,120,2013-03-27 02:55:00
8:15 PM,50.0,44.6,82,29.98,10.0,Calm,Calm,-,N/A,,Overcast,0,2013-03-27 03:15:00
8:35 PM,50.0,44.6,82,29.99,10.0,Calm,Calm,-,N/A,,Overcast,0,2013-03-27 03:35:00
8:55 PM,50.0,44.6,82,29.99,10.0,Calm,Calm,-,N/A,,Overcast,0,2013-03-27 03:55:00
9:15 PM,50.0,44.6,82,29.99,10.0,Calm,Calm,-,N/A,,Overcast,0,2013-03-27 04:15:00
9:35 PM,50.0,44.6,82,29.99,10.0,Calm,Calm,-,N/A,,Overcast,0,2013-03-27 04:35:00
9:55 PM,50.0,44.6,82,29.99,10.0,Calm,Calm,-,N/A,,Overcast,0,2013-03-27 04:55:00
10:15 PM,50.0,44.6,82,29.99,10.0,SE,3.5,-,N/A,,Overcast,130,2013-03-27 05:15:00
10:35 PM,50.0,44.6,82,29.99,10.0,Calm,Calm,-,N/A,,Overcast,0,2013-03-27 05:35:00
10:55 PM,48.2,44.6,87,29.99,10.0,Calm,Calm,-,N/A,,Overcast,0,2013-03-27 05:55:00
11:15 PM,48.2,44.6,87,29.99,10.0,Calm,Calm,-,N/A,,Overcast,0,2013-03-27 06:15:00
11:35 PM,48.2,44.6,87,29.99,10.0,Calm,Calm,-,N/A,,Overcast,0,2013-03-27 06:35:00
11:55 PM,48.2,44.6,87,29.98,10.0,Calm,Calm,-,N/A,,Overcast,0,2013-03-27 06:55:00